This demonstration page uses our WeatherBlox Daily Observations layout. Learn more.

Left ArrowRight Arrow

41.12389, -100.76542

Hourly Observations for June 24, 2022

Temp ( °F °C ) Dew Point ( °F °C ) Humidity (%) Winds ( mph kmh ) Pressure ( in mb ) Visibility ( mi km ) Precip ( " mm )
12:53 am 00:53 Clear 70 21.1 64 17.8 82 82 ESE 6 9 29.78 1008 10 16 0.00 0.00
1:53 am 01:53 Clear 67 19.4 63 17.2 87 87 ESE 6 9 29.77 1008 10 16 0.00 0.00
2:53 am 02:53 Clear 66 18.9 63 17.2 90 90 E 5 7 29.75 1008 10 16 0.00 0.00
3:53 am 03:53 Clear 71 21.7 65 18.3 81 81 SSE 6 9 29.74 1007 10 16 0.00 0.00
4:53 am 04:53 Clear 71 21.7 64 17.8 79 79 S 7 11 29.74 1007 10 16 0.00 0.00
5:53 am 05:53 Clear 69 20.6 64 17.8 84 84 E 8 13 29.76 1008 10 16 0.00 0.00
6:53 am 06:53 Sunny 65 18.3 62 16.7 90 90 Calm 29.77 1008 10 16 0.00 0.00
7:53 am 07:53 Sunny 73 22.8 66 18.9 79 79 Calm 29.79 1009 10 16 0.00 0.00
8:29 am 08:29 Mostly Cloudy 74 23.3 66 18.9 76 76 SSW 5 7 29.75 1007 10 16 0.00 0.00
8:53 am 08:53 Mostly Cloudy 74 23.3 66 18.9 76 76 S 8 13 29.80 1009 10 16 0.00 0.00
9:14 am 09:14 Partly Cloudy 76 24.4 67 19.4 74 74 S 12 19 29.74 1007 10 16 0.00 0.00
9:45 am 09:45 Mostly Cloudy 78 25.6 66 18.9 67 67 S 13 20 29.73 1007 10 16 0.00 0.00
9:53 am 09:53 Mostly Cloudy 79 26.1 67 19.4 67 67 SSW 10 17 29.79 1009 10 16 0.00 0.00
10:46 am 10:46 Mostly Sunny 79 26.1 66 18.9 65 65 S 8 13 29.70 1006 10 16 0.00 0.00
10:53 am 10:53 Mostly Sunny 80 26.7 66 18.9 62 62 SE 9 15 29.78 1009 10 16 0.00 0.00
11:53 am 11:53 Sunny 83 28.3 66 18.9 57 57 SE 6 9 29.77 1008 10 16 0.00 0.00
12:53 pm 12:53 Sunny 87 30.6 65 18.3 48 48 VRB 6 9 29.76 1008 10 16 0.00 0.00
1:53 pm 13:53 Sunny 90 32.2 66 18.9 45 45 ESE 8 13 29.75 1007 10 16 0.00 0.00
2:53 pm 14:53 Sunny 91 32.8 59 15 34 34 E 9 15 29.72 1007 10 16 0.00 0.00
3:53 pm 15:53 Sunny 90 32.2 65 18.3 44 44 E 10 17 29.72 1007 10 16 0.00 0.00
4:53 pm 16:53 Sunny 91 32.8 66 18.9 44 44 E 15 24 29.70 1006 10 16 0.00 0.00
5:53 pm 17:53 Sunny 88 31.1 66 18.9 48 48 E 16 26 29.70 1006 10 16 0.00 0.00
6:53 pm 18:53 Sunny 86 30 66 18.9 51 51 ESE 13 20 29.69 1005 10 16 0.00 0.00
7:53 pm 19:53 Sunny 85 29.4 67 19.4 55 55 E 10 17 29.67 1005 10 16 0.00 0.00
8:53 pm 20:53 Sunny 81 27.2 67 19.4 62 62 ESE 8 13 29.72 1006 10 16 0.00 0.00
9:44 pm 21:44 Mostly Cloudy with Light Rain 73 22.8 63 17.2 71 71 S 7 11 29.69 1006 10 16 0.00 0.00
9:53 pm 21:53 Mostly Cloudy with Nearby Thunderstorms 71 21.7 64 17.8 79 79 WSW 12 19 29.77 1008 10 16 0.00 0.00
10:10 pm 22:10 Partly Cloudy 71 21.7 65 18.3 81 81 Calm 29.72 1006 10 16 0.00 0.00
10:53 pm 22:53 Clear 71 21.7 65 18.3 81 81 NW 10 17 29.77 1008 10 16 0.00 0.00
11:53 pm 23:53 Clear 73 22.8 65 18.3 76 76 SW 6 9 29.79 1009 10 16 0.00 0.00

Powered by AerisWeather